Time,TemperatureF,DewpointF,PressureIn,WindDirection,WindDirectionDegrees,WindSpeedMPH,WindSpeedGustMPH,Humidity,HourlyPrecipIn,Conditions,Clouds,dailyrainin,SoftwareType,DateUTC
2013-06-18 00:22:00,58.6,55.1,29.90,N/A,-737280,0.0,-999.0,88,0.00,,,0.00,Wunderground v.1.15,2013-06-18 07:22:00,
2013-06-18 00:27:00,58.6,55.1,29.90,N/A,-737280,0.0,-999.0,88,0.00,,,0.00,Wunderground v.1.15,2013-06-18 07:27:00,
2013-06-18 00:32:00,58.6,55.1,29.90,N/A,-737280,0.0,-999.0,88,0.00,,,0.00,Wunderground v.1.15,2013-06-18 07:32:00,
2013-06-18 00:37:00,58.6,55.1,29.90,N/A,-737280,0.0,-999.0,88,0.00,,,0.00,Wunderground v.1.15,2013-06-18 07:37:00,
2013-06-18 00:42:00,58.6,55.1,29.90,N/A,-737280,0.0,-999.0,88,0.00,,,0.00,Wunderground v.1.15,2013-06-18 07:42:00,
2013-06-18 00:47:00,57.7,54.8,29.90,N/A,-737280,0.0,-999.0,90,0.00,,,0.00,Wunderground v.1.15,2013-06-18 07:47:00,
2013-06-18 00:52:00,57.7,54.8,29.90,N/A,-737280,0.0,-999.0,90,0.00,,,0.00,Wunderground v.1.15,2013-06-18 07:52:00,
2013-06-18 00:57:00,57.7,54.8,29.90,N/A,-737280,0.0,-999.0,90,0.00,,,0.00,Wunderground v.1.15,2013-06-18 07:57:00,
2013-06-18 01:02:00,57.7,54.8,29.90,N/A,-737280,0.0,-999.0,90,0.00,,,0.00,Wunderground v.1.15,2013-06-18 08:02:00,
2013-06-18 01:07:00,57.7,54.8,29.90,N/A,-737280,0.0,-999.0,90,0.00,,,0.00,Wunderground v.1.15,2013-06-18 08:07:00,
2013-06-18 01:12:00,57.7,54.8,29.90,N/A,-737280,0.0,-999.0,90,0.00,,,0.00,Wunderground v.1.15,2013-06-18 08:12:00,
2013-06-18 01:17:00,56.9,54.0,29.89,N/A,-737280,0.0,-999.0,90,0.00,,,0.00,Wunderground v.1.15,2013-06-18 08:17:00,
2013-06-18 01:22:00,56.9,54.0,29.89,N/A,-737280,0.0,-999.0,90,0.00,,,0.00,Wunderground v.1.15,2013-06-18 08:22:00,
2013-06-18 01:27:00,56.9,54.0,29.89,N/A,-737280,0.0,-999.0,90,0.00,,,0.00,Wunderground v.1.15,2013-06-18 08:27:00,
2013-06-18 01:32:00,56.9,54.0,29.89,N/A,-737280,0.0,-999.0,90,0.00,,,0.00,Wunderground v.1.15,2013-06-18 08:32:00,
2013-06-18 01:37:00,56.9,54.0,29.89,N/A,-737280,0.0,-999.0,90,0.00,,,0.00,Wunderground v.1.15,2013-06-18 08:37:00,
2013-06-18 01:42:00,56.9,54.0,29.89,N/A,-737280,0.0,-999.0,90,0.00,,,0.00,Wunderground v.1.15,2013-06-18 08:42:00,
2013-06-18 01:47:00,56.3,53.7,29.89,N/A,-737280,0.0,-999.0,91,0.00,,,0.00,Wunderground v.1.15,2013-06-18 08:47:00,
2013-06-18 01:52:00,56.3,53.7,29.89,N/A,-737280,0.0,-999.0,91,0.00,,,0.00,Wunderground v.1.15,2013-06-18 08:52:00,
2013-06-18 01:57:00,56.3,53.7,29.89,N/A,-737280,0.0,-999.0,91,0.00,,,0.00,Wunderground v.1.15,2013-06-18 08:57:00,
2013-06-18 02:02:00,56.3,53.7,29.89,N/A,-737280,0.0,-999.0,91,0.00,,,0.00,Wunderground v.1.15,2013-06-18 09:02:00,
2013-06-18 02:07:00,56.3,53.7,29.89,N/A,-737280,0.0,-999.0,91,0.00,,,0.00,Wunderground v.1.15,2013-06-18 09:07:00,
2013-06-18 02:12:00,56.3,53.7,29.89,N/A,-737280,0.0,-999.0,91,0.00,,,0.00,Wunderground v.1.15,2013-06-18 09:12:00,
2013-06-18 02:17:00,55.6,53.3,29.88,N/A,-737280,0.0,-999.0,92,0.00,,,0.00,Wunderground v.1.15,2013-06-18 09:17:00,
2013-06-18 02:22:00,55.6,53.3,29.88,N/A,-737280,0.0,-999.0,92,0.00,,,0.00,Wunderground v.1.15,2013-06-18 09:22:00,
2013-06-18 02:27:00,55.6,53.3,29.88,N/A,-737280,0.0,-999.0,92,0.00,,,0.00,Wunderground v.1.15,2013-06-18 09:27:00,
2013-06-18 02:32:00,55.6,53.3,29.88,N/A,-737280,0.0,-999.0,92,0.00,,,0.00,Wunderground v.1.15,2013-06-18 09:32:00,
2013-06-18 02:37:00,55.6,53.3,29.88,N/A,-737280,0.0,-999.0,92,0.00,,,0.00,Wunderground v.1.15,2013-06-18 09:37:00,
2013-06-18 02:42:00,55.6,53.3,29.88,N/A,-737280,0.0,-999.0,92,0.00,,,0.00,Wunderground v.1.15,2013-06-18 09:42:00,
2013-06-18 02:47:00,55.7,53.7,29.88,N/A,-737280,0.0,-999.0,93,0.00,,,0.00,Wunderground v.1.15,2013-06-18 09:47:00,
2013-06-18 02:52:00,55.7,53.7,29.88,N/A,-737280,0.0,-999.0,93,0.00,,,0.00,Wunderground v.1.15,2013-06-18 09:52:00,
2013-06-18 02:57:00,55.7,53.7,29.88,N/A,-737280,0.0,-999.0,93,0.00,,,0.00,Wunderground v.1.15,2013-06-18 09:57:00,
2013-06-18 03:02:00,55.7,53.7,29.88,N/A,-737280,0.0,-999.0,93,0.00,,,0.00,Wunderground v.1.15,2013-06-18 10:02:00,
2013-06-18 03:07:00,55.7,53.7,29.88,N/A,-737280,0.0,-999.0,93,0.00,,,0.00,Wunderground v.1.15,2013-06-18 10:07:00,
2013-06-18 03:12:00,55.7,53.7,29.88,N/A,-737280,0.0,-999.0,93,0.00,,,0.00,Wunderground v.1.15,2013-06-18 10:12:00,
2013-06-18 03:17:00,56.0,54.0,29.88,WSW,248,0.0,-999.0,93,0.00,,,0.00,Wunderground v.1.15,2013-06-18 10:17:00,
2013-06-18 03:22:00,56.0,54.0,29.88,WSW,248,0.0,-999.0,93,0.00,,,0.00,Wunderground v.1.15,2013-06-18 10:22:00,
2013-06-18 03:27:00,56.0,54.0,29.88,WSW,248,0.0,-999.0,93,0.00,,,0.00,Wunderground v.1.15,2013-06-18 10:27:00,
2013-06-18 03:32:00,56.0,54.0,29.88,WSW,248,0.0,-999.0,93,0.00,,,0.00,Wunderground v.1.15,2013-06-18 10:32:00,
2013-06-18 03:37:00,56.0,54.0,29.88,WSW,248,0.0,-999.0,93,0.00,,,0.00,Wunderground v.1.15,2013-06-18 10:37:00,
2013-06-18 03:42:00,56.0,54.0,29.88,WSW,248,0.0,-999.0,93,0.00,,,0.00,Wunderground v.1.15,2013-06-18 10:42:00,
2013-06-18 03:47:00,55.6,53.6,29.88,N/A,-737280,0.0,-999.0,93,0.00,,,0.00,Wunderground v.1.15,2013-06-18 10:47:00,
2013-06-18 03:52:00,55.6,53.6,29.88,N/A,-737280,0.0,-999.0,93,0.00,,,0.00,Wunderground v.1.15,2013-06-18 10:52:00,
2013-06-18 03:57:00,55.6,53.6,29.88,N/A,-737280,0.0,-999.0,93,0.00,,,0.00,Wunderground v.1.15,2013-06-18 10:57:00,
2013-06-18 04:02:00,55.6,53.6,29.88,N/A,-737280,0.0,-999.0,93,0.00,,,0.00,Wunderground v.1.15,2013-06-18 11:02:00,
2013-06-18 04:07:00,55.6,53.6,29.88,N/A,-737280,0.0,-999.0,93,0.00,,,0.00,Wunderground v.1.15,2013-06-18 11:07:00,
2013-06-18 04:12:00,55.6,53.6,29.88,N/A,-737280,0.0,-999.0,93,0.00,,,0.00,Wunderground v.1.15,2013-06-18 11:12:00,
2013-06-18 04:17:00,55.1,52.8,29.88,N/A,-737280,0.0,-999.0,92,0.00,,,0.00,Wunderground v.1.15,2013-06-18 11:17:00,
2013-06-18 04:22:00,55.1,52.8,29.88,N/A,-737280,0.0,-999.0,92,0.00,,,0.00,Wunderground v.1.15,2013-06-18 11:22:00,
2013-06-18 04:27:00,55.1,52.8,29.88,N/A,-737280,0.0,-999.0,92,0.00,,,0.00,Wunderground v.1.15,2013-06-18 11:27:00,
2013-06-18 04:32:00,55.1,52.8,29.88,N/A,-737280,0.0,-999.0,92,0.00,,,0.00,Wunderground v.1.15,2013-06-18 11:32:00,
2013-06-18 04:37:00,55.1,52.8,29.88,N/A,-737280,0.0,-999.0,92,0.00,,,0.00,Wunderground v.1.15,2013-06-18 11:37:00,
2013-06-18 04:42:00,55.1,52.8,29.88,N/A,-737280,0.0,-999.0,92,0.00,,,0.00,Wunderground v.1.15,2013-06-18 11:42:00,
2013-06-18 04:47:00,54.3,52.3,29.88,N/A,-737280,0.0,-999.0,93,0.00,,,0.00,Wunderground v.1.15,2013-06-18 11:47:00,
2013-06-18 04:52:00,54.3,52.3,29.88,N/A,-737280,0.0,-999.0,93,0.00,,,0.00,Wunderground v.1.15,2013-06-18 11:52:00,
2013-06-18 04:57:00,54.3,52.3,29.88,N/A,-737280,0.0,-999.0,93,0.00,,,0.00,Wunderground v.1.15,2013-06-18 11:57:00,
2013-06-18 05:22:00,54.7,53.0,29.89,WSW,252,0.0,0.0,94,0.00,,,0.00,Wunderground v.1.15,2013-06-18 12:22:00,
2013-06-18 05:28:00,54.5,52.8,29.89,WSW,250,0.0,0.0,94,0.00,,,0.00,Wunderground v.1.15,2013-06-18 12:28:00,
2013-06-18 05:34:00,54.4,52.7,29.89,SW,233,0.0,0.0,94,0.00,,,0.00,Wunderground v.1.15,2013-06-18 12:34:00,
2013-06-18 05:40:00,54.4,52.7,29.89,SW,228,0.0,0.0,94,0.00,,,0.00,Wunderground v.1.15,2013-06-18 12:40:00,
2013-06-18 05:46:00,55.0,53.6,29.90,WSW,243,0.0,0.0,95,0.00,,,0.00,Wunderground v.1.15,2013-06-18 12:46:00,
2013-06-18 05:52:00,55.1,53.7,29.90,WSW,250,0.0,0.0,95,0.00,,,0.00,Wunderground v.1.15,2013-06-18 12:52:00,
2013-06-18 05:58:00,55.1,53.7,29.89,WSW,250,0.0,0.0,95,0.00,,,0.00,Wunderground v.1.15,2013-06-18 12:58:00,
2013-06-18 06:04:00,55.3,53.9,29.90,WSW,250,0.0,0.0,95,0.00,,,0.00,Wunderground v.1.15,2013-06-18 13:04:00,
2013-06-18 06:10:00,55.4,54.0,29.90,WSW,248,0.0,0.0,95,0.00,,,0.00,Wunderground v.1.15,2013-06-18 13:10:00,
2013-06-18 06:16:00,55.4,54.0,29.90,SSE,160,0.0,0.0,95,0.00,,,0.00,Wunderground v.1.15,2013-06-18 13:16:00,
2013-06-18 06:22:00,55.5,54.1,29.90,SSE,160,0.0,0.0,95,0.00,,,0.00,Wunderground v.1.15,2013-06-18 13:22:00,
2013-06-18 06:28:00,55.7,54.3,29.91,West,260,0.0,0.0,95,0.00,,,0.00,Wunderground v.1.15,2013-06-18 13:28:00,
2013-06-18 06:34:00,56.1,54.7,29.91,WSW,249,0.0,0.0,95,0.00,,,0.00,Wunderground v.1.15,2013-06-18 13:34:00,
2013-06-18 06:40:00,56.2,54.8,29.91,SW,236,0.0,0.0,95,0.00,,,0.00,Wunderground v.1.15,2013-06-18 13:40:00,
2013-06-18 06:46:00,56.6,55.5,29.91,SW,233,0.0,0.0,96,0.00,,,0.00,Wunderground v.1.15,2013-06-18 13:46:00,
2013-06-18 06:52:00,57.0,55.6,29.91,SW,231,0.0,0.0,95,0.00,,,0.00,Wunderground v.1.15,2013-06-18 13:52:00,
2013-06-18 06:58:00,57.4,56.0,29.91,SW,236,0.0,2.0,95,0.00,,,0.00,Wunderground v.1.15,2013-06-18 13:58:00,
2013-06-18 07:04:00,57.7,56.3,29.91,West,263,0.0,0.0,95,0.00,,,0.00,Wunderground v.1.15,2013-06-18 14:04:00,
2013-06-18 07:10:00,58.1,56.7,29.91,SW,230,0.0,1.0,95,0.00,,,0.00,Wunderground v.1.15,2013-06-18 14:10:00,
2013-06-18 07:16:00,59.0,57.3,29.91,SW,236,0.0,2.0,94,0.00,,,0.00,Wunderground v.1.15,2013-06-18 14:16:00,
2013-06-18 07:22:00,59.9,57.6,29.91,WSW,251,1.0,1.0,92,0.00,,,0.00,Wunderground v.1.15,2013-06-18 14:22:00,
2013-06-18 07:28:00,60.6,57.7,29.92,WSW,250,2.0,2.0,90,0.00,,,0.00,Wunderground v.1.15,2013-06-18 14:28:00,
2013-06-18 07:34:00,61.5,57.9,29.92,WSW,246,2.0,2.0,88,0.00,,,0.00,Wunderground v.1.15,2013-06-18 14:34:00,
2013-06-18 07:40:00,62.4,58.2,29.92,SW,226,1.0,1.0,86,0.00,,,0.00,Wunderground v.1.15,2013-06-18 14:40:00,
2013-06-18 07:46:00,63.0,57.8,29.92,SW,236,1.0,3.0,83,0.00,,,0.00,Wunderground v.1.15,2013-06-18 14:46:00,
2013-06-18 07:52:00,63.7,57.8,29.92,WSW,238,1.0,2.0,81,0.00,,,0.00,Wunderground v.1.15,2013-06-18 14:52:00,
2013-06-18 07:58:00,64.3,57.6,29.92,SW,231,1.0,3.0,79,0.00,,,0.00,Wunderground v.1.15,2013-06-18 14:58:00,
2013-06-18 12:58:00,73.4,58.7,29.92,SW,221,5.0,5.0,60,0.00,,,0.00,Wunderground v.1.15,2013-06-18 19:58:00,
2013-06-18 13:04:00,73.7,58.9,29.91,SW,229,5.0,10.0,60,0.00,,,0.00,Wunderground v.1.15,2013-06-18 20:04:00,
2013-06-18 13:10:00,73.0,58.8,29.91,WSW,255,6.0,6.0,61,0.00,,,0.00,Wunderground v.1.15,2013-06-18 20:10:00,
2013-06-18 13:16:00,72.9,58.2,29.91,SSW,211,5.0,6.0,60,0.00,,,0.00,Wunderground v.1.15,2013-06-18 20:16:00,
2013-06-18 13:22:00,73.4,59.1,29.91,SW,216,4.0,6.0,61,0.00,,,0.00,Wunderground v.1.15,2013-06-18 20:22:00,
2013-06-18 13:28:00,73.1,58.8,29.91,SW,217,5.0,6.0,61,0.00,,,0.00,Wunderground v.1.15,2013-06-18 20:28:00,